Location: Rowland
(34.5359°N, 79.2929°W)
Time: 14:42:41
(UTC+00:00)

SR - Pass Details

Date: 05 October 2022
Orbit: 577 x 875 km, 66.7° (Epoch: 28 November)

Event Time Altitude Azimuth Distance (km) Brightness Sun altitude
Rises 12:00:55 0° 315° (NW) 3,215 ? 8.5°
Reaches altitude 10° 12:04:09 10° 296° (WNW) 2,221 ? 9.2°
Maximum altitude 12:07:19 17° 256° (WSW) 1,730 ? 9.8°
Drops below altitude 10° 12:10:20 10° 216° (SW) 2,088 ? 10.4°
Sets 12:13:15 0° 196° (SSW) 2,938 ? 11.0°
